<?xml version="1.0"?>
<gpx xmlns="http://www.topografix.com/GPX/1/1" xmlns:xsi="http://www.w3.org/2001/XMLSchema-instance" version="1.1" creator="GPX RubyGem 1.0.0 -- http://dougfales.github.io/gpx/" xsi:schemaLocation="http://www.topografix.com/GPX/1/1 http://www.topografix.com/GPX/1/1/gpx.xsd">
  <metadata>
    <name/>
    <time>2026-05-08T00:54:27+00:00</time>
    <bound minlat="90.0" minlon="180.0" maxlat="-90.0" maxlon="-180.0"/>
  </metadata>
  <trk>
    <name/>
    <trkseg>
      <trkpt lat="45.754082" lon="9.239402">
        <time>1970-01-01T00:00:00+00:00</time>
        <ele>301.0</ele>
      </trkpt>
      <trkpt lat="45.754355" lon="9.239334">
        <time>1970-01-01T00:00:00+00:00</time>
        <ele>300.0</ele>
      </trkpt>
      <trkpt lat="45.754259" lon="9.23843">
        <time>1970-01-01T00:00:00+00:00</time>
        <ele>308.0</ele>
      </trkpt>
      <trkpt lat="45.754197" lon="9.237817">
        <time>1970-01-01T00:00:00+00:00</time>
        <ele>313.0</ele>
      </trkpt>
      <trkpt lat="45.753336" lon="9.238118">
        <time>1970-01-01T00:00:00+00:00</time>
        <ele>313.0</ele>
      </trkpt>
      <trkpt lat="45.75332" lon="9.23812">
        <time>1970-01-01T00:00:00+00:00</time>
        <ele>314.0</ele>
      </trkpt>
      <trkpt lat="45.753267" lon="9.237774">
        <time>1970-01-01T00:00:00+00:00</time>
        <ele>314.0</ele>
      </trkpt>
      <trkpt lat="45.753138" lon="9.237293">
        <time>1970-01-01T00:00:00+00:00</time>
        <ele>314.0</ele>
      </trkpt>
      <trkpt lat="45.753013" lon="9.237052">
        <time>1970-01-01T00:00:00+00:00</time>
        <ele>316.0</ele>
      </trkpt>
      <trkpt lat="45.753013" lon="9.237052">
        <time>1970-01-01T00:00:00+00:00</time>
        <ele>316.0</ele>
      </trkpt>
      <trkpt lat="45.753138" lon="9.237293">
        <time>1970-01-01T00:00:00+00:00</time>
        <ele>314.0</ele>
      </trkpt>
      <trkpt lat="45.753267" lon="9.237774">
        <time>1970-01-01T00:00:00+00:00</time>
        <ele>314.0</ele>
      </trkpt>
      <trkpt lat="45.75332" lon="9.23812">
        <time>1970-01-01T00:00:00+00:00</time>
        <ele>314.0</ele>
      </trkpt>
      <trkpt lat="45.753336" lon="9.238118">
        <time>1970-01-01T00:00:00+00:00</time>
        <ele>313.0</ele>
      </trkpt>
      <trkpt lat="45.754197" lon="9.237817">
        <time>1970-01-01T00:00:00+00:00</time>
        <ele>313.0</ele>
      </trkpt>
      <trkpt lat="45.754259" lon="9.23843">
        <time>1970-01-01T00:00:00+00:00</time>
        <ele>308.0</ele>
      </trkpt>
      <trkpt lat="45.754355" lon="9.239334">
        <time>1970-01-01T00:00:00+00:00</time>
        <ele>300.0</ele>
      </trkpt>
      <trkpt lat="45.754082" lon="9.239402">
        <time>1970-01-01T00:00:00+00:00</time>
        <ele>301.0</ele>
      </trkpt>
    </trkseg>
  </trk>
</gpx>
